Location: Brno
(49.2000°N, 16.6330°E)
Time: 06:36:13
(UTC+02:00)

Tianhe-1 - Visible Passes

Search period start: 25 June 2021 00:00
Search period end: 05 July 2021 00:00
Orbit: 375 x 385 km, 41.5° (Epoch: 24 June)

Date Brightness Start Highest point End Pass type
(mag) Time Alt. Az. Time Alt. Az. Time Alt. Az.
25 Jun 2.9 03:01:54 16° S 03:02:01 16° SSE 03:04:01 10° SE visible
26 Jun 2.6 03:35:35 14° SW 03:37:13 20° S 03:39:37 10° SE visible
27 Jun 3.0 02:37:12 16° SSE 02:37:12 16° SSE 02:38:32 10° SE visible
28 Jun 2.5 03:11:03 19° SSW 03:11:25 20° S 03:13:48 10° SE visible
29 Jun 2.8 03:45:05 12° SW 03:46:31 16° SSW 03:48:29 10° SSE visible
30 Jun 3.4 02:47:19 12° SSE 02:47:19 12° SSE 02:47:45 10° SE visible
03 Jul 3.4 22:39:13 10° SSW 22:39:31 11° SSW 22:39:31 11° SSW visible
04 Jul 3.4 23:13:34 10° SW 23:13:55 12° SW 23:13:55 12° SW visible
